Tracking 19817 objects as of 18-Aug-2019
HD Live streaming from Space Station
objects crossing your sky now

SL-8 DEB

Track SL-8 DEB now!
10-day predictions


NORAD ID: 19048
Int'l Code: 1988-029C
Perigee: 688.8 km
Apogee: 706.4 km
Inclination: 74.0 °
Period: 98.6 minutes
Semi major axis: 7068 km
RCS: 0.0085 m2 (small)
Launch date: April 5, 1988
Source: Commonwealth of Independent States (former USSR) (CIS)
Launch site: PLESETSK MISSILE AND SPACE COMPLEX (PKMTR)

Note: This is SATELLITE DEBRIS
aabbcc
Your satellite tracking list
Your tracking list is empty




NASA's NSSDC Master Catalog

Two Line Element Set (TLE):
1 19048U 88029C   19228.92621281 +.00000149 +00000-0 +36689-4 0  9992
2 19048 074.0233 205.2472 0012395 166.1004 224.5999 14.60838100657978
Source of the keplerian elements: AFSPC